Location: Unspecified
(0.0000°N, 0.0000°E)
Time: 22:51:39
(UTC+00:00)

Vanguard 1 - Pass Details

Date: 07 October 2020
Orbit: 649 x 3833 km, 34.3° (Epoch: 27 October)

Event Time Altitude Azimuth Distance (km) Brightness Sun altitude
Rises 08:43:55 0° 226° (SW) 5,777 13.7 43.8°
Reaches altitude 10° 08:50:12 10° 205° (SSW) 5,421 13.8 45.3°
Maximum altitude 08:59:22 16° 172° (S) 5,676 14.3 47.6°
Drops below altitude 10° 09:10:34 10° 140° (SE) 6,759 14.9 50.4°
Sets 09:20:35 0° 121° (ESE) 7,976 15.2 52.8°
